Date,Installs,Update checks
2015-09-25,4,2
2015-09-26,39,9
2015-09-27,55,58
2015-09-28,29,69
2015-09-29,14,107
2015-09-30,15,105
2015-10-01,8,135
2015-10-02,11,149
2015-10-03,6,171
2015-10-04,10,159
2015-10-05,8,207
2015-10-06,10,197
2015-10-07,10,223
2015-10-08,4,212
2015-10-09,13,227
2015-10-10,6,224
2015-10-11,9,222
2015-10-12,7,262
2015-10-13,3,229
2015-10-14,1,267
2015-10-15,8,246
2015-10-16,11,293
2015-10-17,3,260
2015-10-18,0,298
2015-10-19,6,277
2015-10-20,3,313
2015-10-21,2,275
2015-10-22,2,319
2015-10-23,8,267
2015-10-24,11,298
2015-10-25,9,315
2015-10-26,13,340
2015-10-27,7,330
2015-10-28,4,327
2015-10-29,9,349
2015-10-30,11,355
2015-10-31,3,348
2015-11-01,7,369
2015-11-02,3,396
2015-11-03,6,371
2015-11-04,1,360
2015-11-05,7,396
2015-11-06,12,360
2015-11-07,6,357
2015-11-08,6,319
2015-11-09,4,373
2015-11-10,5,340
2015-11-11,5,334
2015-11-12,4,347
2015-11-13,1,336
2015-11-14,3,308
2015-11-15,7,310
2015-11-16,6,321
2015-11-17,0,319
2015-11-18,8,300
2015-11-19,2,315
2015-11-20,3,291
2015-11-21,9,281
2015-11-22,8,290
2015-11-23,5,293
2015-11-24,35,303
2015-11-25,10,303
2015-11-26,7,300
2015-11-27,15,300
2015-11-28,8,285
2015-11-29,7,307
2015-11-30,6,316
2015-12-01,5,304
2015-12-02,6,316
2015-12-03,1,311
2015-12-04,4,315
2015-12-05,9,310
2015-12-06,10,311
2015-12-07,3,328
2015-12-08,4,300
2015-12-09,6,317
2015-12-10,8,325
2015-12-11,9,304
2015-12-12,4,289
2015-12-13,3,304
2015-12-14,4,333
2015-12-15,9,321
2015-12-16,5,321
2015-12-17,3,309
2015-12-18,9,321
2015-12-19,11,317
2015-12-20,5,322
2015-12-21,5,342
2015-12-22,3,315
2015-12-23,8,329
2015-12-24,8,307
2015-12-25,3,317
2015-12-26,3,319
2015-12-27,9,328
2015-12-28,14,345
2015-12-29,10,329
2015-12-30,15,340
2015-12-31,5,339
2016-01-01,10,333
2016-01-02,3,341
2016-01-03,6,360
2016-01-04,8,366
2016-01-05,4,373
2016-01-06,3,365
2016-01-07,6,404
2016-01-08,7,367
2016-01-09,10,402
2016-01-10,18,355
2016-01-11,17,396
2016-01-12,7,381
2016-01-13,5,409
2016-01-14,6,382
2016-01-15,7,399
2016-01-16,4,382
2016-01-17,8,386
2016-01-18,7,392
2016-01-19,4,430
2016-01-20,3,387
2016-01-21,2,407
2016-01-22,2,399
2016-01-23,4,412
2016-01-24,4,378
2016-01-25,6,420
2016-01-26,5,414
2016-01-27,5,411
2016-01-28,6,410
2016-01-29,7,415
2016-01-30,6,397
2016-01-31,3,403
2016-02-01,3,424
2016-02-02,8,409
2016-02-03,4,415
2016-02-04,6,427
2016-02-05,6,408
2016-02-06,4,423
2016-02-07,8,365
2016-02-08,8,416
2016-02-09,11,400
2016-02-10,9,396
2016-02-11,9,378
2016-02-12,10,429
2016-02-13,6,405
2016-02-14,5,437
2016-02-15,3,418
2016-02-16,6,444
2016-02-17,6,415
2016-02-18,7,453
2016-02-19,2,412
2016-02-20,5,453
2016-02-21,10,429
2016-02-22,8,464
2016-02-23,9,445
2016-02-24,6,464
2016-02-25,7,442
2016-02-26,9,479
2016-02-27,5,422
2016-02-28,5,458
2016-02-29,1,474
2016-03-01,1,487
2016-03-02,3,422
2016-03-03,6,480
2016-03-04,6,444
2016-03-05,6,471
2016-03-06,9,430
2016-03-07,9,499
2016-03-08,10,453
2016-03-09,9,483
2016-03-10,1,456
2016-03-11,7,495
2016-03-12,9,436
2016-03-13,11,482
2016-03-14,10,494
2016-03-15,5,468
2016-03-16,7,485
2016-03-17,4,499
2016-03-18,4,478
2016-03-19,6,480
2016-03-20,5,458
2016-03-21,3,504
2016-03-22,6,489
2016-03-23,5,502
2016-03-24,5,498
2016-03-25,7,486
2016-03-26,3,451
2016-03-27,3,479
2016-03-28,6,499
2016-03-29,8,500
2016-03-30,7,502
2016-03-31,7,504
2016-04-01,11,502
2016-04-02,17,501
2016-04-03,5,467
2016-04-04,3,549
2016-04-05,7,498
2016-04-06,6,540
2016-04-07,12,490
2016-04-08,5,532
2016-04-09,9,457
2016-04-10,5,465
2016-04-11,5,556
2016-04-12,8,526
2016-04-13,3,542
2016-04-14,12,543
2016-04-15,2,543
2016-04-16,8,507
2016-04-17,5,535
2016-04-18,4,548
2016-04-19,6,574
2016-04-20,9,533
2016-04-21,6,552
2016-04-22,1,553
2016-04-23,10,521
2016-04-24,3,513
2016-04-25,7,560
2016-04-26,5,541
2016-04-27,4,571
2016-04-28,4,559
2016-04-29,1,550
2016-04-30,6,527
2016-05-01,15,535
2016-05-02,9,560
2016-05-03,5,558
2016-05-04,8,577
2016-05-05,4,573
2016-05-06,7,586
2016-05-07,7,562
2016-05-08,9,566
2016-05-09,6,597
2016-05-10,17,608
2016-05-11,5,593
2016-05-12,6,630
2016-05-13,4,561
2016-05-14,10,588
2016-05-15,8,581
2016-05-16,11,618
2016-05-17,10,629
2016-05-18,9,648
2016-05-19,8,625
2016-05-20,6,693
2016-05-21,5,655
2016-05-22,9,714
2016-05-23,9,763
2016-05-24,6,791
2016-05-25,4,839
2016-05-26,9,847
2016-05-27,6,893
2016-05-28,8,878
2016-05-29,7,919
2016-05-30,6,956
2016-05-31,4,977
2016-06-01,6,1025
2016-06-02,4,950
2016-06-03,4,1041
2016-06-04,4,940
2016-06-05,11,1021
2016-06-06,4,1009
2016-06-07,6,1052
2016-06-08,7,1009
2016-06-09,5,1018
2016-06-10,3,1059
2016-06-11,7,999
2016-06-12,6,1042
2016-06-13,8,1057
2016-06-14,4,1083
2016-06-15,2,1066
2016-06-16,4,1033
2016-06-17,5,1068
2016-06-18,6,997
2016-06-19,2,1037
2016-06-20,3,1067
2016-06-21,9,1064
2016-06-22,1,1055
2016-06-23,2,1092
2016-06-24,5,1037
2016-06-25,6,1003
2016-06-26,4,1059
2016-06-27,1,1071
2016-06-28,6,1030
2016-06-29,6,1053
2016-06-30,4,1068
2016-07-01,4,1055
2016-07-02,5,1018
2016-07-03,10,1010
2016-07-04,4,1064
2016-07-05,5,1038
2016-07-06,4,1037
2016-07-07,5,1069
2016-07-08,6,1049
2016-07-09,6,1010
2016-07-10,9,1039
2016-07-11,11,1074
2016-07-12,5,1060
2016-07-13,7,1105
2016-07-14,6,1026
2016-07-15,2,1079
2016-07-16,15,981
2016-07-17,8,1090
2016-07-18,8,1071
2016-07-19,3,1089
2016-07-20,8,1050
2016-07-21,5,1114
2016-07-22,7,1067
2016-07-23,13,1071
2016-07-24,6,1041
2016-07-25,9,1146
2016-07-26,7,1058
2016-07-27,20,1163
2016-07-28,21,1118
2016-07-29,19,1141
2016-07-30,15,1101
2016-07-31,23,1128
2016-08-01,14,1193
2016-08-02,9,1178
2016-08-03,6,1178
2016-08-04,10,1168
2016-08-05,8,1178
2016-08-06,8,1126
2016-08-07,9,1091
2016-08-08,4,1205
2016-08-09,11,1160
2016-08-10,7,1207
2016-08-11,13,1168
2016-08-12,12,1191
2016-08-13,7,1172
2016-08-14,10,1118
2016-08-15,10,1196
2016-08-16,7,1204
2016-08-17,6,1192
2016-08-18,13,1228
2016-08-19,8,1192
2016-08-20,7,1190
2016-08-21,11,1213
2016-08-22,7,1212
2016-08-23,13,1234
2016-08-24,5,1219
2016-08-25,11,1230
2016-08-26,11,1229
2016-08-27,9,1227
2016-08-28,11,1202
2016-08-29,7,1263
2016-08-30,6,1236
2016-08-31,9,1287
2016-09-01,7,1264
2016-09-02,14,1226
2016-09-03,6,1209
2016-09-04,8,1204
2016-09-05,8,1255
2016-09-06,9,1260
2016-09-07,8,1281
2016-09-08,4,1288
2016-09-09,9,1257
2016-09-10,2,1238
2016-09-11,3,1225
2016-09-12,8,1259
2016-09-13,5,1281
2016-09-14,6,1294
2016-09-15,9,1282
2016-09-16,11,1268
2016-09-17,19,1226
2016-09-18,6,1266
2016-09-19,10,1293
2016-09-20,15,1341
2016-09-21,7,1337
2016-09-22,10,1300
2016-09-23,12,1337
2016-09-24,11,1244
2016-09-25,9,1332
2016-09-26,4,1322
2016-09-27,8,1340
2016-09-28,9,1333
2016-09-29,9,1374
2016-09-30,8,1309
2016-10-01,9,1308
2016-10-02,12,1235
2016-10-03,7,1357
2016-10-04,8,1309
2016-10-05,9,1359
2016-10-06,9,1381
2016-10-07,1,1321
2016-10-08,3,1298
2016-10-09,5,1306
2016-10-10,6,1322
2016-10-11,7,1421
2016-10-12,6,1308
2016-10-13,5,1367
2016-10-14,11,1337
2016-10-15,9,1322
2016-10-16,14,1291
2016-10-17,10,1385
2016-10-18,7,1369
2016-10-19,9,1404
2016-10-20,8,1395
2016-10-21,12,1366
2016-10-22,5,1347
2016-10-23,13,1333
2016-10-24,7,1410
2016-10-25,9,1385
2016-10-26,15,1396
2016-10-27,13,1385
2016-10-28,6,1408
2016-10-29,16,1340
2016-10-30,17,1377
2016-10-31,12,1422
2016-11-01,9,1434
2016-11-02,8,1404
2016-11-03,14,1482
2016-11-04,7,1376
2016-11-05,10,1406
2016-11-06,8,1352
2016-11-07,5,1462
2016-11-08,17,1424
2016-11-09,8,1461
2016-11-10,3,1423
2016-11-11,9,1444
2016-11-12,11,1433
2016-11-13,7,1375
2016-11-14,6,1488
2016-11-15,6,1416
2016-11-16,6,1479
2016-11-17,6,1438
2016-11-18,12,1431
2016-11-19,15,1434
2016-11-20,13,1390
2016-11-21,10,1462
2016-11-22,8,1406
2016-11-23,6,1452
2016-11-24,14,1455
2016-11-25,10,1418
2016-11-26,12,1422
2016-11-27,9,1404
2016-11-28,10,1487
2016-11-29,11,1464
2016-11-30,8,1490
2016-12-01,11,1504
2016-12-02,16,1451
2016-12-03,7,1457
2016-12-04,13,1402
2016-12-05,13,1486
2016-12-06,13,1478
2016-12-07,10,1511
2016-12-08,10,1488
2016-12-09,8,1530
2016-12-10,10,1396
2016-12-11,13,1471
2016-12-12,5,1480
2016-12-13,7,1524
2016-12-14,9,1476
2016-12-15,11,1553
2016-12-16,11,1458
2016-12-17,13,1469
2016-12-18,6,1378
2016-12-19,4,1575
2016-12-20,8,1440
2016-12-21,9,1520
2016-12-22,8,1471
2016-12-23,9,1437
2016-12-24,8,1381
2016-12-25,12,1350
2016-12-26,8,1461
2016-12-27,16,1435
2016-12-28,8,1453
2016-12-29,7,1430
2016-12-30,8,1489
2016-12-31,10,1364
2017-01-01,7,1455
2017-01-02,8,1447
2017-01-03,9,1536
2017-01-04,4,1479
2017-01-05,5,1526
2017-01-06,12,1511
2017-01-07,8,1497
2017-01-08,16,1512
2017-01-09,11,1597
2017-01-10,6,1512
2017-01-11,9,1576
2017-01-12,11,1578
2017-01-13,7,1576
2017-01-14,10,1480
2017-01-15,14,1507
2017-01-16,13,1577
2017-01-17,11,1571
2017-01-18,5,1556
2017-01-19,8,1614
2017-01-20,7,1538
2017-01-21,9,1520
2017-01-22,13,1528
2017-01-23,12,1575
2017-01-24,22,1575
2017-01-25,52,1597
2017-01-26,28,1558
2017-01-27,9,1501
2017-01-28,17,1519
2017-01-29,13,1545
2017-01-30,18,1557
2017-01-31,13,1640
2017-02-01,11,1617
2017-02-02,20,1637
2017-02-03,20,1592
2017-02-04,17,1623
2017-02-05,12,1579
2017-02-06,11,1672
2017-02-07,4,1595
2017-02-08,9,1689
2017-02-09,13,1596
2017-02-10,12,1704
2017-02-11,19,1549
2017-02-12,9,1613
2017-02-13,13,1631
2017-02-14,11,1675
2017-02-15,14,1625
2017-02-16,11,1689
2017-02-17,11,1651
2017-02-18,10,1630
2017-02-19,15,1573
2017-02-20,9,1729
2017-02-21,10,1593
2017-02-22,6,1742
2017-02-23,14,1655
2017-02-24,17,1697
2017-02-25,16,1610
2017-02-26,14,1650
2017-02-27,6,1662
2017-02-28,10,1731
2017-03-01,11,1661
2017-03-02,7,1734
2017-03-03,7,1633
2017-03-04,8,1654
2017-03-05,10,1652
2017-03-06,15,1758
2017-03-07,16,1631
2017-03-08,10,1735
2017-03-09,9,1727
2017-03-10,10,1724
2017-03-11,11,1601
2017-03-12,9,1640
2017-03-13,15,1723
2017-03-14,9,1678
2017-03-15,9,1747
2017-03-16,11,1715
2017-03-17,9,1672
2017-03-18,13,1687
2017-03-19,11,1645
2017-03-20,8,1761
2017-03-21,13,1666
2017-03-22,11,1781
2017-03-23,12,1673
2017-03-24,13,1769
2017-03-25,16,1679
2017-03-26,14,1672
2017-03-27,10,1770
2017-03-28,12,1674
2017-03-29,8,1770
2017-03-30,21,1742
2017-03-31,8,1780
2017-04-01,19,1769
2017-04-02,9,1674
2017-04-03,7,1766
2017-04-04,8,1692
2017-04-05,7,1792
2017-04-06,6,1712
2017-04-07,9,1808
2017-04-08,15,1684
2017-04-09,7,1710
2017-04-10,8,1760
2017-04-11,14,1783
2017-04-12,7,1749
2017-04-13,10,1758
2017-04-14,7,1756
2017-04-15,10,1705
2017-04-16,11,1700
2017-04-17,12,1780
2017-04-18,10,1756
2017-04-19,6,1812
2017-04-20,11,1782
2017-04-21,17,1796
2017-04-22,20,1576
2017-04-23,12,1851
2017-04-24,9,1705
2017-04-25,15,1851
2017-04-26,13,1798
2017-04-27,14,1835
2017-04-28,11,1784
2017-04-29,11,1799
2017-04-30,14,1650
2017-05-01,11,1866
2017-05-02,11,1771
2017-05-03,17,1867
2017-05-04,12,1775
2017-05-05,12,1854
2017-05-06,6,1758
2017-05-07,11,1770
2017-05-08,15,1867
2017-05-09,18,1836
2017-05-10,8,1844
2017-05-11,13,1916
2017-05-12,7,1846
2017-05-13,12,1823
2017-05-14,14,1794
2017-05-15,7,1935
2017-05-16,6,1798
2017-05-17,11,1929
2017-05-18,10,1791
2017-05-19,10,1925
2017-05-20,13,1752
2017-05-21,14,1819
2017-05-22,7,1869
2017-05-23,5,1839
2017-05-24,9,1942
2017-05-25,13,1856
2017-05-26,14,1877
2017-05-27,16,1757
2017-05-28,15,1814
2017-05-29,6,1852
2017-05-30,16,1847
2017-05-31,17,1919
2017-06-01,22,1918
2017-06-02,11,1887
2017-06-03,47,1878
2017-06-04,64,1893
2017-06-05,28,2036
2017-06-06,27,1992
2017-06-07,17,2021
2017-06-08,22,2014
2017-06-09,13,1982
2017-06-10,19,1981
2017-06-11,16,1905
2017-06-12,16,2081
2017-06-13,14,2063
2017-06-14,18,2051
2017-06-15,16,2058
2017-06-16,11,1974
2017-06-17,14,1993
2017-06-18,15,1976
2017-06-19,11,2035
2017-06-20,11,2022
2017-06-21,12,2074
2017-06-22,15,2008
2017-06-23,12,2024
2017-06-24,14,1985
2017-06-25,14,1958
2017-06-26,8,2005
2017-06-27,10,1962
2017-06-28,16,2066
2017-06-29,13,2031
2017-06-30,19,2055
2017-07-01,15,1992
2017-07-02,15,1995
2017-07-03,13,2051
2017-07-04,12,2015
2017-07-05,21,2068
2017-07-06,12,2015
2017-07-07,11,2104
2017-07-08,5,1999
2017-07-09,9,1993
2017-07-10,10,2072
2017-07-11,13,2092
2017-07-12,18,2119
2017-07-13,23,2033
2017-07-14,18,2163
2017-07-15,16,1981
2017-07-16,11,2007
2017-07-17,10,2084
2017-07-18,5,2137
2017-07-19,6,2083
2017-07-20,8,2080
2017-07-21,7,3058
2017-07-22,14,1841
2017-07-23,16,2403
2017-07-24,10,2131
2017-07-25,7,2397
2017-07-26,9,1810
2017-07-27,9,2388
2017-07-28,12,2159
2017-07-29,19,2260
2017-07-30,18,2159
2017-07-31,16,2294
2017-08-01,7,2220
2017-08-02,5,2205
2017-08-03,13,2257
2017-08-04,17,2262
2017-08-05,11,2122
2017-08-06,9,2205
2017-08-07,14,2216
2017-08-08,9,2276
2017-08-09,15,2151
2017-08-10,11,2299
2017-08-11,12,2192
2017-08-12,13,2230
2017-08-13,12,2150
2017-08-14,11,2281
2017-08-15,8,2165
2017-08-16,5,2166
2017-08-17,10,2191
2017-08-18,15,2189
2017-08-19,16,2105
2017-08-20,9,2157
2017-08-21,9,2194
2017-08-22,13,2213
2017-08-23,11,1820
2017-08-24,17,2284
2017-08-25,9,2085
2017-08-26,14,2119
2017-08-27,13,2036
2017-08-28,9,2201
2017-08-29,9,2114
2017-08-30,14,2051
2017-08-31,8,2101
2017-09-01,6,2129
2017-09-02,11,2022
2017-09-03,13,2087
2017-09-04,10,2113
2017-09-05,9,2151
2017-09-06,12,1571
2017-09-07,8,2150
2017-09-08,17,2065
2017-09-09,7,2046
2017-09-10,14,2042
2017-09-11,14,2069
2017-09-12,14,2088
2017-09-13,5,1676
2017-09-14,11,2094
2017-09-15,12,2029
2017-09-16,18,2044
2017-09-17,18,1990
2017-09-18,10,2021
2017-09-19,9,2083
2017-09-20,8,2079
2017-09-21,12,2020
2017-09-22,8,2060
2017-09-23,10,1950
2017-09-24,12,2056
2017-09-25,10,2056
2017-09-26,12,2022
2017-09-27,11,2093
2017-09-28,12,2057
2017-09-29,19,2065
2017-09-30,24,2051
2017-10-01,30,2006
2017-10-02,15,2000
2017-10-03,9,2093
2017-10-04,12,2047
2017-10-05,14,2097
2017-10-06,9,2031
2017-10-07,16,2022
2017-10-08,12,2031
2017-10-09,15,2034
2017-10-10,9,2116
2017-10-11,12,2118
2017-10-12,12,2087
2017-10-13,8,2086
2017-10-14,14,2062
2017-10-15,4,2104
2017-10-16,11,2101
2017-10-17,7,2101
2017-10-18,11,2104
2017-10-19,6,2090
2017-10-20,14,2084
2017-10-21,18,2066
2017-10-22,8,2075
2017-10-23,11,2142
2017-10-24,6,2065
2017-10-25,14,2169
2017-10-26,14,2141
2017-10-27,14,2113
2017-10-28,17,2086
2017-10-29,9,2150
2017-10-30,7,2122
2017-10-31,8,2180
2017-11-01,10,2220
2017-11-02,9,2156
2017-11-03,9,2133
2017-11-04,10,2093
2017-11-05,18,2119
2017-11-06,11,1421
2017-11-07,12,2336
2017-11-08,14,2071
2017-11-09,16,2188
2017-11-10,7,2149
2017-11-11,12,2103
2017-11-12,15,2071
2017-11-13,11,2155
2017-11-14,14,2115
2017-11-15,24,2100
2017-11-16,27,2032
2017-11-17,29,1975
2017-11-18,39,1921
2017-11-19,27,1929
2017-11-20,20,1978
2017-11-21,13,2002
2017-11-22,17,1965
2017-11-23,16,1976
2017-11-24,17,1938
2017-11-25,22,1846
2017-11-26,20,1953
2017-11-27,12,1990
2017-11-28,16,1981
2017-11-29,16,2037
2017-11-30,9,1970
2017-12-01,21,1938
2017-12-02,16,1946
2017-12-03,17,1951
2017-12-04,10,1998
2017-12-05,18,2063
2017-12-06,7,2037
2017-12-07,15,1984
2017-12-08,14,2016
2017-12-09,8,2049
2017-12-10,7,1965
2017-12-11,10,2028
2017-12-12,9,2074
2017-12-13,11,1983
2017-12-14,19,2003
2017-12-15,11,2038
2017-12-16,20,2014
2017-12-17,14,1981
2017-12-18,15,2028
2017-12-19,14,2042
2017-12-20,11,1997
2017-12-21,8,1973
2017-12-22,9,1984
2017-12-23,7,1914
2017-12-24,9,1897
2017-12-25,14,1919
2017-12-26,12,1982
2017-12-27,7,1962
2017-12-28,9,2001
2017-12-29,17,1975
2017-12-30,15,1946
2017-12-31,12,1918
2018-01-01,11,1964
2018-01-02,14,2013
2018-01-03,17,2022
2018-01-04,14,2056
2018-01-05,14,2043
2018-01-06,6,2041
2018-01-07,11,2032
2018-01-08,10,2087
2018-01-09,12,2087
2018-01-10,9,2080
2018-01-11,14,2082
2018-01-12,14,2084
2018-01-13,15,2043
2018-01-14,14,2046
2018-01-15,12,2115
2018-01-16,9,2059
2018-01-17,7,2137
2018-01-18,12,2053
2018-01-19,9,2108
2018-01-20,16,2025
2018-01-21,11,2027
2018-01-22,9,2120
2018-01-23,11,2112
2018-01-24,9,2136
2018-01-25,13,2105
2018-01-26,14,2083
2018-01-27,15,2091
2018-01-28,11,2078
2018-01-29,8,2163
2018-01-30,14,2127
2018-01-31,11,2132
2018-02-01,6,2123
2018-02-02,14,2132
2018-02-03,17,2097
2018-02-04,9,2067
2018-02-05,9,2178
2018-02-06,7,2111
2018-02-07,6,2121
2018-02-08,9,2057
2018-02-09,12,2216
2018-02-10,21,2114
2018-02-11,15,2116
2018-02-12,12,2183
2018-02-13,12,2103
2018-02-14,11,2120
2018-02-15,12,2093
2018-02-16,11,2013
2018-02-17,13,2054
2018-02-18,8,1993
2018-02-19,10,2083
2018-02-20,6,2119
2018-02-21,16,2194
2018-02-22,10,2170
2018-02-23,13,2162
2018-02-24,14,2152
2018-02-25,10,2062
2018-02-26,11,2214
2018-02-27,13,2208
2018-02-28,4,2264
2018-03-01,16,2184
2018-03-02,17,2215
2018-03-03,21,2172
2018-03-04,15,2164
2018-03-05,10,2225
2018-03-06,9,2208
2018-03-07,12,2205
2018-03-08,9,2205
2018-03-09,10,2224
2018-03-10,8,2207
2018-03-11,9,2129
2018-03-12,7,2231
2018-03-13,14,2232
2018-03-14,12,2260
2018-03-15,10,2202
2018-03-16,12,2256
2018-03-17,13,2189
2018-03-18,11,2215
2018-03-19,10,2248
2018-03-20,6,2237
2018-03-21,9,2237
2018-03-22,8,2228
2018-03-23,15,2256
2018-03-24,11,2218
2018-03-25,6,2161
2018-03-26,10,2268
2018-03-27,14,2248
2018-03-28,11,2223
2018-03-29,9,2240
2018-03-30,9,2251
2018-03-31,10,2180
2018-04-01,3,2163
2018-04-02,8,2256
2018-04-03,5,2239
2018-04-04,12,2173
2018-04-05,3,2227
2018-04-06,6,2241
2018-04-07,10,2223
2018-04-08,5,2217
2018-04-09,9,2229
2018-04-10,5,2234
2018-04-11,9,2218
2018-04-12,11,2242
2018-04-13,10,2278
2018-04-14,8,2214
2018-04-15,15,2184
2018-04-16,9,2282
2018-04-17,10,2298
2018-04-18,3,2283
2018-04-19,10,2283
2018-04-20,12,2283
2018-04-21,10,2199
2018-04-22,6,2261
2018-04-23,7,2265
2018-04-24,7,2314
2018-04-25,5,2221
2018-04-26,8,2282
2018-04-27,3,2233
2018-04-28,13,2232
2018-04-29,10,2188
2018-04-30,4,2261
2018-05-01,6,2169
2018-05-02,3,2344
2018-05-03,5,2279
2018-05-04,9,2278
2018-05-05,9,2211
2018-05-06,10,2212
2018-05-07,9,2253
2018-05-08,9,2295
2018-05-09,12,2231
2018-05-10,6,2269
2018-05-11,16,2243
2018-05-12,4,2144
2018-05-13,9,2195
2018-05-14,8,2283
2018-05-15,7,2237
2018-05-16,7,2207
2018-05-17,13,2206
2018-05-18,3,2214
2018-05-19,7,1556
2018-05-20,5,2415
2018-05-21,7,2197
2018-05-22,5,2263
2018-05-23,6,2238
2018-05-24,8,2242
2018-05-25,6,2222
2018-05-26,5,2156
2018-05-27,5,2173
2018-05-28,15,2260
2018-05-29,5,2244
2018-05-30,6,2283
2018-05-31,6,2225
2018-06-01,8,2260
2018-06-02,5,1999
2018-06-03,10,1955
2018-06-04,10,1930
2018-06-05,8,1918
2018-06-06,8,1916
2018-06-07,9,1937
2018-06-08,8,1913
2018-06-09,7,1858
2018-06-10,8,1883
2018-06-11,4,1939
2018-06-12,8,1898
2018-06-13,6,1901
2018-06-14,8,1891
2018-06-15,10,1830
2018-06-16,16,1811
2018-06-17,6,1765
2018-06-18,10,1885
2018-06-19,7,1861
2018-06-20,8,1738
2018-06-21,11,1762
2018-06-22,7,1887
2018-06-23,13,1814
2018-06-24,10,1884
2018-06-25,5,1931
2018-06-26,5,1870
2018-06-27,6,1847
2018-06-28,9,1927
2018-06-29,9,1830
2018-06-30,9,1877
2018-07-01,14,1793
2018-07-02,10,1925
2018-07-03,5,1918
2018-07-04,8,1900
2018-07-05,11,1890
2018-07-06,5,1915
2018-07-07,15,1822
2018-07-08,8,1858
2018-07-09,8,1929
2018-07-10,7,1887
2018-07-11,8,1884
2018-07-12,7,1883
2018-07-13,11,1865
2018-07-14,8,1869
2018-07-15,14,1862
2018-07-16,10,1877
2018-07-17,16,1885
2018-07-18,13,1861
2018-07-19,14,1884
2018-07-20,21,1881
2018-07-21,18,1817
2018-07-22,17,1864
2018-07-23,13,1958
2018-07-24,7,1905
2018-07-25,10,1887
2018-07-26,12,1850
2018-07-27,10,1910
2018-07-28,8,1855
2018-07-29,5,1853
2018-07-30,18,1977
2018-07-31,11,1965
2018-08-01,13,1959
2018-08-02,13,1886
2018-08-03,12,1966
2018-08-04,6,1843
2018-08-05,11,1874
2018-08-06,8,1919
2018-08-07,9,1905
2018-08-08,8,1962
2018-08-09,11,1924
2018-08-10,10,1910
2018-08-11,10,1880
2018-08-12,11,1874
2018-08-13,25,1947
2018-08-14,12,1928
2018-08-15,11,1982
2018-08-16,11,1941
2018-08-17,14,1908
2018-08-18,22,1819
2018-08-19,14,1895
2018-08-20,10,1962
2018-08-21,7,1900
2018-08-22,10,1874
2018-08-23,11,1892
2018-08-24,14,1879
2018-08-25,10,1842
2018-08-26,14,1841
2018-08-27,9,1940
2018-08-28,11,1942
2018-08-29,10,1896
2018-08-30,12,1905
2018-08-31,20,1910
2018-09-01,12,1865
2018-09-02,8,1879
2018-09-03,8,1949
2018-09-04,7,2022
2018-09-05,16,1916
2018-09-06,14,1930
2018-09-07,20,1928
2018-09-08,19,1868
2018-09-09,7,1857
2018-09-10,9,1962
2018-09-11,7,1974
2018-09-12,8,1920
2018-09-13,11,1979
2018-09-14,7,1941
2018-09-15,14,1856
2018-09-16,10,1823
2018-09-17,11,1965
2018-09-18,11,1934
2018-09-19,14,1933
2018-09-20,10,1915
2018-09-21,15,1925
2018-09-22,13,1824
2018-09-23,15,1824
2018-09-24,24,1902
2018-09-25,11,1927
2018-09-26,21,1922
2018-09-27,9,1924
2018-09-28,10,1872
2018-09-29,12,1909
2018-09-30,9,1896
2018-10-01,18,1887
2018-10-02,12,1963
2018-10-03,9,1874
2018-10-04,11,1903
2018-10-05,13,1940
2018-10-06,18,1846
2018-10-07,12,1914
2018-10-08,16,1912
2018-10-09,10,1980
2018-10-10,9,1902
2018-10-11,14,1981
2018-10-12,22,1899
2018-10-13,26,1851
2018-10-14,21,1900
2018-10-15,29,1988
2018-10-16,14,1945
2018-10-17,7,1995
2018-10-18,10,1941
2018-10-19,10,1999
2018-10-20,17,1836
2018-10-21,23,1919
2018-10-22,16,2017
2018-10-23,14,2010
2018-10-24,8,1976
2018-10-25,23,2010
2018-10-26,22,1942
2018-10-27,16,1933
2018-10-28,14,1903
2018-10-29,14,1972
2018-10-30,12,1979
2018-10-31,15,1981
2018-11-01,7,1971
2018-11-02,14,2009
2018-11-03,14,1888
2018-11-04,13,1894
2018-11-05,15,2005
2018-11-06,7,1961
2018-11-07,10,1939
2018-11-08,7,1941
2018-11-09,11,1963
2018-11-10,12,1891
2018-11-11,3,1862
2018-11-12,13,1995
2018-11-13,15,1971
2018-11-14,11,1929
2018-11-15,8,1932
2018-11-16,17,1922
2018-11-17,25,1890
2018-11-18,12,1880
2018-11-19,10,2023
2018-11-20,13,1933
2018-11-21,17,1947
2018-11-22,15,1902
2018-11-23,16,1909
2018-11-24,10,1887
2018-11-25,18,1866
2018-11-26,16,1999
2018-11-27,14,1957
2018-11-28,11,1952
2018-11-29,12,1944
2018-11-30,14,1986
2018-12-01,17,1917
2018-12-02,23,1907
2018-12-03,20,1991
2018-12-04,14,2001
2018-12-05,13,1961
2018-12-06,15,1953
2018-12-07,13,1948
2018-12-08,11,1889
2018-12-09,17,1875
2018-12-10,13,1982
2018-12-11,7,1931
2018-12-12,14,1941
2018-12-13,16,2017
2018-12-14,12,1950
2018-12-15,6,1922
2018-12-16,8,1905
2018-12-17,14,1946
2018-12-18,13,1967
2018-12-19,12,1946
2018-12-20,11,1887
2018-12-21,13,1970
2018-12-22,16,1831
2018-12-23,14,1881
2018-12-24,14,1909
2018-12-25,12,1879
2018-12-26,15,1889
2018-12-27,15,1940
2018-12-28,17,1919
2018-12-29,10,1868
2018-12-30,15,1780
2018-12-31,16,1823
2019-01-01,10,1871
2019-01-02,12,1949
2019-01-03,14,1940
2019-01-04,13,1977
2019-01-05,20,1900
2019-01-06,15,1884
2019-01-07,15,1992
2019-01-08,13,1969
2019-01-09,22,1969
2019-01-10,17,1955
2019-01-11,29,1995
2019-01-12,15,1957
2019-01-13,20,1902
2019-01-14,16,2023
2019-01-15,19,1961
2019-01-16,17,2007
2019-01-17,13,1973
2019-01-18,10,1992
2019-01-19,19,1924
2019-01-20,14,1905
2019-01-21,14,1993
2019-01-22,22,2008
2019-01-23,11,1968
2019-01-24,15,2007
2019-01-25,21,1963
2019-01-26,21,1944
2019-01-27,13,1876
2019-01-28,10,1975
2019-01-29,13,1946
2019-01-30,12,1961
2019-01-31,7,1985
2019-02-01,12,1902
2019-02-02,18,1870
2019-02-03,11,1825
2019-02-04,13,1822
2019-02-05,22,1847
2019-02-06,11,1809
2019-02-07,13,1824
2019-02-08,13,1830
2019-02-09,14,1888
2019-02-10,15,1896
2019-02-11,14,2029
2019-02-12,16,1992
2019-02-13,14,1997
2019-02-14,14,2007
2019-02-15,12,2002
2019-02-16,13,1990
2019-02-17,16,1940
2019-02-18,12,1997
2019-02-19,11,1959
2019-02-20,8,1971
2019-02-21,9,1947
2019-02-22,13,2016
2019-02-23,4,1966
2019-02-24,12,1886
2019-02-25,13,1994
2019-02-26,17,1939
2019-02-27,11,1994
2019-02-28,14,1961
2019-03-01,16,1996
2019-03-02,10,1995
2019-03-03,15,1906
2019-03-04,12,2004
2019-03-05,12,2004
2019-03-06,8,2027
2019-03-07,10,2000
2019-03-08,8,1953
2019-03-09,14,1976
2019-03-10,15,1932
2019-03-11,13,1974
2019-03-12,10,1959
2019-03-13,10,1993
2019-03-14,8,1976
2019-03-15,13,1973
2019-03-16,18,1939
2019-03-17,13,1973
2019-03-18,17,2044
2019-03-19,23,1985
2019-03-20,11,2014
2019-03-21,13,2013
2019-03-22,13,1985
2019-03-23,12,1937
2019-03-24,11,1927
2019-03-25,11,2041
2019-03-26,9,2019
2019-03-27,6,1990
2019-03-28,6,2012
2019-03-29,8,1974
2019-03-30,19,1915
2019-03-31,13,1908
2019-04-01,10,2030
2019-04-02,5,1968
2019-04-03,8,2006
2019-04-04,10,1972
2019-04-05,9,1993
2019-04-06,9,1946
2019-04-07,14,1911
2019-04-08,3,2004
2019-04-09,11,1975
2019-04-10,10,1981
2019-04-11,10,1998
2019-04-12,11,2006
2019-04-13,21,1970
2019-04-14,9,1913
2019-04-15,11,1962
2019-04-16,8,1980
2019-04-17,11,1905
2019-04-18,17,1965
2019-04-19,14,1906
2019-04-20,11,1863
2019-04-21,14,1913
2019-04-22,7,1942
2019-04-23,17,1956